FW0859 Weather Reports


Display with metric or nautical units.
time (UTC)temp
F
wind
direction
speed
MPH
gust
MPH
rain 1hr
in
rain 24hr
in
rain mn
in
humidity
%
barometer
mb
20260510174501 75 88 4.0 11.0 0.00 0.00 0.00 72 1015.9
20260510173107 75 57 6.0 13.0 0.00 0.00 0.00 71 1015.7
20260510171601 75 15 5.0 9.0 0.00 0.00 0.00 73 1015.7
20260510170106 74 26 3.0 7.0 0.00 0.00 0.00 77 1015.8
20260510164554 73 77 4.0 9.0 0.00 0.00 0.00 77 1015.8
20260510163051 73 30 2.0 11.0 0.00 0.00 0.00 76 1015.7
20260510161549 72 57 5.0 10.0 0.00 0.00 0.00 77 1015.9
20260510160049 72 22 5.0 10.0 0.00 0.00 0.00 75 1015.9
20260510154545 70 38 5.0 10.0 0.00 0.00 0.00 75 1016.1
20260510153043 69 17 4.0 8.0 0.00 0.00 0.00 77 1016.1
20260510151544 70 312 3.0 8.0 0.00 0.00 0.00 74 1015.8
20260510150039 70 324 2.0 5.0 0.00 0.00 0.00 76 1015.5
20260510144534 69 309 1.0 5.0 0.00 0.00 0.00 84 1015.5
20260510143035 67 325 1.0 3.0 0.00 0.00 0.00 87 1015.3
20260510141526 64 265 0.0 1.0 0.00 0.00 0.00 87 1015.2
20260510140023 63 265 0.0 2.0 0.00 0.00 0.00 89 1015.1
20260510134519 62 265 0.0 1.0 0.00 0.00 0.00 91 1014.9
20260510133033 60 265 0.0 1.0 0.00 0.00 0.00 93 1014.7
20260510131513 59 265 0.0 2.0 0.00 0.00 0.00 95 1014.7
20260510130009 58 265 0.0 1.0 0.00 0.00 0.00 95 1014.4
20260510124508 57 265 0.0 0.0 0.00 0.00 0.00 96 1014.3
20260510123003 56 265 0.0 0.0 0.00 0.00 0.00 96 1014.4
20260510121501 55 265 0.0 2.0 0.00 0.00 0.00 95 1014.5
20260510120100 55 265 0.0 2.0 0.00 0.00 0.00 96 1014.4
20260510114604 54 173 0.0 1.0 0.00 0.00 0.00 96 1014.3
20260510113100 54 173 0.0 1.0 0.00 0.00 0.00 96 1014.3
20260510111600 53 173 0.0 1.0 0.00 0.00 0.00 96 1014.0
20260510110055 53 173 0.0 2.0 0.00 0.00 0.00 95 1014.0
20260510104556 54 297 1.0 6.0 0.00 0.00 0.00 96 1013.9
20260510103053 53 292 1.0 3.0 0.00 0.00 0.00 96 1013.6
20260510101552 52 189 0.0 0.0 0.00 0.00 0.00 96 1013.2
20260510100048 52 189 0.0 0.0 0.00 0.00 0.00 96 1012.8
20260510094546 52 189 0.0 0.0 0.00 0.00 0.00 96 1012.8
20260510093045 52 189 0.0 0.0 0.00 0.00 0.00 96 1013.0
20260510091644 52 189 0.0 0.0 0.00 0.00 0.00 95 1012.9
20260510090043 52 189 0.0 0.0 0.00 0.00 0.00 95 1012.9
20260510084541 52 163 0.0 0.0 0.00 0.00 0.00 95 1012.7
20260510083039 52 163 0.0 0.0 0.00 0.00 0.00 94 1012.4
20260510081545 52 161 0.0 0.0 0.00 0.00 0.00 94 1012.3
20260510080041 53 160 0.0 0.0 0.00 0.00 0.00 94 1012.1
20260510074535 53 160 0.0 0.0 0.00 0.00 0.00 94 1012.0
20260510073038 53 160 0.0 0.0 0.00 0.00 0.00 93 1012.1
20260510071531 54 160 0.0 0.0 0.00 0.00 0.00 93 1012.0
20260510070031 54 160 0.0 0.0 0.00 0.00 0.00 93 1012.1
20260510064535 54 160 0.0 0.0 0.00 0.00 0.00 92 1012.3
20260510063035 54 160 0.0 0.0 0.00 0.00 0.00 92 1012.4
20260510061526 55 160 0.0 0.0 0.00 0.00 0.00 91 1012.4
20260510060026 55 160 0.0 0.0 0.00 0.00 0.00 91 1012.4
20260510054525 55 160 0.0 0.0 0.00 0.00 0.00 90 1012.6
20260510053024 55 161 0.0 0.0 0.00 0.00 0.00 89 1012.5
20260510051522 55 157 0.0 0.0 0.00 0.00 0.00 89 1012.3
20260510050019 56 157 0.0 0.0 0.00 0.00 0.00 88 1012.2
20260510044617 56 157 0.0 0.0 0.00 0.00 0.00 87 1012.0
20260510043017 57 157 0.0 0.0 0.00 0.00 0.00 86 1011.8
20260510041516 57 157 0.0 0.0 0.00 0.00 0.00 85 1011.7
20260510040016 58 157 0.0 0.0 0.00 0.00 0.00 84 1011.7
20260510034514 58 157 0.0 0.0 0.00 0.00 0.00 84 1011.7
20260510033014 59 157 0.0 0.0 0.00 0.00 0.00 83 1011.5
20260510031517 60 157 0.0 0.0 0.00 0.00 0.00 82 1011.5
20260510030012 60 157 0.0 0.0 0.00 0.00 0.00 81 1011.3
20260510024510 61 157 0.0 0.0 0.00 0.00 0.00 80 1011.1
20260510023006 62 157 0.0 0.0 0.00 0.00 0.00 77 1010.9
20260510021504 64 157 0.0 0.0 0.00 0.00 0.00 75 1010.7
20260510020006 65 157 0.0 0.0 0.00 0.00 0.00 73 1010.4
20260510014505 66 157 0.0 1.0 0.00 0.00 0.00 69 1010.2
20260510013003 68 157 0.0 0.0 0.00 0.00 0.00 66 1010.1
20260510011503 70 157 0.0 2.0 0.00 0.00 0.00 63 1010.0
20260510010003 72 171 0.0 1.0 0.00 0.00 0.00 59 1009.8
20260510004600 74 143 0.0 0.0 0.00 0.00 0.00 54 1009.7
20260510003106 76 143 0.0 4.0 0.00 0.00 0.00 50 1009.3
20260510001559 78 154 1.0 4.0 0.00 0.00 0.00 46 1009.3
20260510000100 80 165 2.0 7.0 0.00 0.00 0.00 46 1009.1
20260509234605 82 156 0.0 1.0 0.00 0.00 0.00 45 1009.1
20260509233058 82 157 0.0 2.0 0.00 0.00 0.00 41 1009.0
20260509231558 83 144 1.0 6.0 0.00 0.00 0.00 39 1009.2
20260509230058 84 170 0.0 3.0 0.00 0.00 0.00 34 1009.1
20260509224601 84 186 1.0 5.0 0.00 0.00 0.00 35 1009.0
20260509223059 83 171 1.0 8.0 0.00 0.00 0.00 34 1009.0
20260509221605 84 279 2.0 8.0 0.00 0.00 0.00 36 1008.7
20260509220053 83 201 1.0 6.0 0.00 0.00 0.00 36 1008.7
20260509214556 82 108 1.0 7.0 0.00 0.00 0.00 36 1008.7
20260509213051 83 154 1.0 4.0 0.00 0.00 0.00 37 1008.8
20260509211555 83 283 1.0 7.0 0.00 0.00 0.00 36 1008.9
20260509210054 83 351 1.0 4.0 0.00 0.00 0.00 36 1009.0
20260509204551 83 293 5.0 8.0 0.00 0.00 0.00 38 1009.3
20260509203047 83 220 0.0 5.0 0.00 0.00 0.00 35 1009.4
20260509201554 82 258 1.0 8.0 0.00 0.00 0.00 35 1009.5
20260509200056 82 114 0.0 4.0 0.00 0.00 0.00 40 1009.7
20260509194541 81 26 2.0 6.0 0.00 0.00 0.00 39 1009.9
20260509193038 81 355 4.0 8.0 0.00 0.00 0.00 39 1010.0
20260509191537 81 293 6.0 9.0 0.00 0.00 0.00 39 1009.9
20260509190037 81 71 3.0 8.0 0.00 0.00 0.00 35 1009.9
20260509184534 80 168 3.0 10.0 0.00 0.00 0.00 33 1010.1
20260509183031 80 265 2.0 5.0 0.00 0.00 0.00 39 1010.2
20260509181530 80 264 6.0 10.0 0.00 0.00 0.00 40 1010.2
20260509180027 79 83 2.0 4.0 0.00 0.00 0.00 43 1010.2